Weather History for KCON - April, 2014

Change the Weather History Date:

Sunday, April 6, 2014

  Actual Average Record
Temperature  
Mean Temperature 41 °F 41 °F  
Max Temperature 53 °F 53 °F 82 °F (1928)
Min Temperature 28 °F 30 °F 14 °F (1943)
Degree Days  
Heating Degree Days 24 24  
Month to date heating degree days 151 149  
Since 1 July heating degree days 6834 6396  
Cooling Degree Days 0 0  
Month to date cooling degree days 0 0  
Year to date cooling degree days 0 0  
Moisture  
Dew Point 18 °F    
Average Humidity 46    
Maximum Humidity 72    
Minimum Humidity 20    
Precipitation  
Precipitation 0.00 in 0.11 in 1.27 in (2009)
Month to date precipitation 0.42 0.68  
Year to date precipitation 11.72 9.27  
Snow  
Snow 0.00 in 0.20 in 13.30 in (1982)
Month to date snowfall 0.0 1.1  
Since 1 July snowfall 80.2 59.7  
Snow Depth 7.00 in    
Sea Level Pressure  
Sea Level Pressure 30.07 in    
Wind  
Wind Speed 9 mph (WNW)    
Max Wind Speed 22 mph    
Max Gust Speed 30 mph    
Visibility 10 miles    
Events      
T = Trace of Precipitation, MM = Missing Value Source: NWS Daily Summary

Daily Weather History Graph

Daily Weather History Graph

Search for Another Location

Airport or City:

Trip Planner

Search our weather history database for the weather conditions in past years. The results will help you decide how hot, cold, wet, or windy it might be!

Date:

Astronomy

Apr. 06, 2014 Rise Set
Actual Time 6:19 AM EDT 7:18 PM EDT
Civil Twilight 5:50 AM EDT 7:47 PM EDT
Nautical Twilight 5:15 AM EDT 8:22 PM EDT
Astronomical Twilight 4:39 AM EDT 8:58 PM EDT
Moon 11:12 AM EDT (4/6) 1:17 AM EDT (4/6)
Length of Visible Light 13h 57m
Length of Day
12h 59m
Waxing Crescent, 43% of the Moon is Illuminated
Apr 6
Waxing Crescent
Apr 7
First Quarter
Apr 15
Full
Apr 22
Last Quarter
Apr 29
New

Hourly Weather History & Observations

Time (EDT) Temp. Windchill Dew Point Humidity Pressure Visibility Wind Dir Wind Speed Gust Speed Precip Events Conditions
12:51 AM 36.0 °F 27.5 °F 21.0 °F 55% 29.92 in 10.0 mi WNW 12.7 mph 20.7 mph N/A   Overcast
1:51 AM 36.0 °F 27.1 °F 21.0 °F 55% 29.94 in 10.0 mi WNW 13.8 mph - N/A   Overcast
2:51 AM 35.1 °F 25.9 °F 21.0 °F 57% 29.94 in 10.0 mi WNW 13.8 mph - N/A   Mostly Cloudy
3:51 AM 35.1 °F 27.4 °F 21.0 °F 57% 29.96 in 10.0 mi WNW 10.4 mph - N/A   Overcast
4:51 AM 34.0 °F 27.2 °F 19.9 °F 56% 29.99 in 10.0 mi West 8.1 mph - N/A   Overcast
5:51 AM 34.0 °F 23.4 °F 19.9 °F 56% 30.01 in 10.0 mi WNW 17.3 mph 24.2 mph N/A   Mostly Cloudy
6:51 AM 34.0 °F 24.2 °F 19.9 °F 56% 30.04 in 10.0 mi WNW 15.0 mph 20.7 mph N/A   Partly Cloudy
7:51 AM 36.0 °F 27.5 °F 19.0 °F 50% 30.07 in 10.0 mi WNW 12.7 mph 20.7 mph N/A   Scattered Clouds
8:51 AM 37.9 °F 31.5 °F 19.0 °F 47% 30.08 in 10.0 mi NW 9.2 mph 25.3 mph N/A   Clear
9:51 AM 39.9 °F 31.4 °F 18.0 °F 41% 30.10 in 10.0 mi WNW 16.1 mph - N/A   Clear
10:51 AM 43.0 °F 36.4 °F 18.0 °F 37% 30.11 in 10.0 mi NW 12.7 mph 21.9 mph N/A   Clear
11:51 AM 45.0 °F 38.5 °F 16.0 °F 31% 30.10 in 10.0 mi NW 13.8 mph 20.7 mph N/A   Clear
12:51 PM 48.0 °F - 18.0 °F 30% 30.09 in 10.0 mi Variable 5.8 mph - N/A   Clear
1:51 PM 50.0 °F - 15.1 °F 25% 30.08 in 10.0 mi WNW 15.0 mph 21.9 mph N/A   Clear
2:51 PM 52.0 °F - 14.0 °F 22% 30.09 in 10.0 mi WNW 12.7 mph - N/A   Clear
3:51 PM 51.8 °F - 15.8 °F 24% 30.07 in 10.0 mi West 9.2 mph 20.7 mph N/A   Clear
4:51 PM 53.1 °F - 14.0 °F 21% 30.09 in 10.0 mi NW 10.4 mph 20.7 mph N/A   Clear
5:51 PM 53.1 °F - 15.1 °F 22% 30.09 in 10.0 mi West 10.4 mph - N/A   Clear
6:51 PM 50.0 °F - 16.0 °F 26% 30.10 in 10.0 mi West 4.6 mph - N/A   Clear
7:51 PM 46.9 °F - 18.0 °F 32% 30.11 in 10.0 mi West 3.5 mph - N/A   Clear
8:51 PM 39.0 °F - 19.0 °F 45% 30.14 in 10.0 mi Calm Calm - N/A   Clear
9:51 PM 35.1 °F - 19.9 °F 54% 30.15 in 10.0 mi Calm Calm - N/A   Clear
10:51 PM 30.9 °F - 21.9 °F 69% 30.17 in 10.0 mi Calm Calm - N/A   Clear
11:51 PM 30.9 °F - 23.0 °F 72% 30.18 in 10.0 mi Calm Calm - N/A   Clear